LVGQE SCEL-SCSE

Flight info

Callsign LVGQE
Flight time 0h 41m
Altitude 28000
Route DONTI5B DONTI UQ802 KUGAP KUGAP5
Aircraft CRJ9/M-SDFGIRWY/S

Departure

Time 2026-04-25 22:33
Airport Comodoro Arturo Merino Benítez International Airport (SCEL)

Arrival

Time 2026-04-25 23:14
Airport La Florida Airport (SCSE)
Time Latitude Longitude Altitude Speed Heading
2026-04-25 22:03 -33.38873 -70.79555 1563 ft 0 kts 268°
2026-04-25 22:14 -33.38871 -70.79531 1562 ft 4 kts 261°
2026-04-25 22:14 -33.38867 -70.79517 1562 ft 3 kts 185°
2026-04-25 22:15 -33.38864 -70.79517 1562 ft 1 kts 178°
2026-04-25 22:18 -33.38865 -70.79517 1562 ft 0 kts 178°
2026-04-25 22:19 -33.38869 -70.79516 1562 ft 1 kts 178°
2026-04-25 22:19 -33.38879 -70.79516 1562 ft 1 kts 178°
2026-04-25 22:19 -33.38890 -70.79516 1562 ft 2 kts 178°
2026-04-25 22:19 -33.38915 -70.79515 1562 ft 5 kts 178°
2026-04-25 22:20 -33.38962 -70.79512 1562 ft 8 kts 177°
2026-04-25 22:20 -33.39003 -70.79492 1562 ft 3 kts 112°
2026-04-25 22:20 -33.39005 -70.79460 1562 ft 5 kts 90°
2026-04-25 22:20 -33.39004 -70.79403 1562 ft 9 kts 88°
2026-04-25 22:21 -33.39001 -70.79315 1562 ft 12 kts 87°
2026-04-25 22:21 -33.39012 -70.79209 1562 ft 13 kts 117°
2026-04-25 22:21 -33.39070 -70.79154 1562 ft 8 kts 174°
2026-04-25 22:21 -33.39135 -70.79150 1562 ft 11 kts 178°
2026-04-25 22:22 -33.39215 -70.79145 1562 ft 13 kts 176°
2026-04-25 22:22 -33.39300 -70.79156 1562 ft 11 kts 223°
2026-04-25 22:22 -33.39317 -70.79230 1562 ft 10 kts 265°
2026-04-25 22:22 -33.39321 -70.79318 1562 ft 12 kts 266°
2026-04-25 22:23 -33.39326 -70.79426 1563 ft 14 kts 269°
2026-04-25 22:23 -33.39330 -70.79550 1563 ft 16 kts 267°
2026-04-25 22:23 -33.39336 -70.79688 1563 ft 17 kts 267°
2026-04-25 22:23 -33.39342 -70.79834 1563 ft 18 kts 267°
2026-04-25 22:24 -33.39342 -70.79947 1563 ft 9 kts 276°
2026-04-25 22:24 -33.39317 -70.80015 1564 ft 9 kts 309°
2026-04-25 22:24 -33.39263 -70.80054 1564 ft 9 kts 347°
2026-04-25 22:24 -33.39197 -70.80061 1564 ft 10 kts 359°
2026-04-25 22:25 -33.39122 -70.80064 1565 ft 11 kts 358°
2026-04-25 22:25 -33.39039 -70.80070 1565 ft 12 kts 354°
2026-04-25 22:25 -33.38950 -70.80077 1565 ft 13 kts 356°
2026-04-25 22:25 -33.38852 -70.80082 1565 ft 15 kts 358°
2026-04-25 22:26 -33.38745 -70.80087 1565 ft 16 kts 357°
2026-04-25 22:26 -33.38628 -70.80093 1565 ft 18 kts 358°
2026-04-25 22:26 -33.38500 -70.80098 1565 ft 19 kts 358°
2026-04-25 22:26 -33.38364 -70.80108 1564 ft 20 kts 356°
2026-04-25 22:27 -33.38218 -70.80116 1564 ft 22 kts 358°
2026-04-25 22:27 -33.38105 -70.80122 1564 ft 12 kts 358°
2026-04-25 22:27 -33.38041 -70.80125 1564 ft 10 kts 356°
2026-04-25 22:27 -33.37947 -70.80130 1564 ft 19 kts 357°
2026-04-25 22:28 -33.37781 -70.80139 1564 ft 27 kts 357°
2026-04-25 22:28 -33.37585 -70.80149 1565 ft 27 kts 357°
2026-04-25 22:28 -33.37430 -70.80157 1565 ft 21 kts 357°
2026-04-25 22:28 -33.37287 -70.80164 1565 ft 20 kts 358°
2026-04-25 22:29 -33.37189 -70.80169 1565 ft 10 kts 355°
2026-04-25 22:29 -33.37134 -70.80193 1565 ft 7 kts 323°
2026-04-25 22:29 -33.37120 -70.80212 1566 ft 2 kts 304°
2026-04-25 22:30 -33.37109 -70.80237 1567 ft 0 kts 289°
2026-04-25 22:31 -33.37108 -70.80240 1567 ft 1 kts 289°
2026-04-25 22:31 -33.37107 -70.80246 1567 ft 2 kts 283°
2026-04-25 22:31 -33.37105 -70.80274 1569 ft 5 kts 269°
2026-04-25 22:31 -33.37118 -70.80331 1572 ft 9 kts 238°
2026-04-25 22:32 -33.37190 -70.80373 1572 ft 17 kts 182°
2026-04-25 22:32 -33.37391 -70.80363 1572 ft 51 kts 177°
2026-04-25 22:32 -33.38007 -70.80331 1570 ft 124 kts 177°
2026-04-25 22:32 -33.39060 -70.80256 1683 ft 171 kts 175°
2026-04-25 22:33 -33.40328 -70.80087 2229 ft 199 kts 169°
2026-04-25 22:33 -33.41775 -70.79881 2733 ft 219 kts 175°
2026-04-25 22:33 -33.43362 -70.79780 3325 ft 240 kts 178°
2026-04-25 22:33 -33.45083 -70.79773 4070 ft 250 kts 178°
2026-04-25 22:34 -33.46860 -70.79856 4828 ft 267 kts 191°
2026-04-25 22:34 -33.48601 -70.80831 5435 ft 287 kts 216°
2026-04-25 22:34 -33.50046 -70.82600 5995 ft 310 kts 233°
2026-04-25 22:34 -33.50970 -70.84944 7023 ft 304 kts 255°
2026-04-25 22:35 -33.51106 -70.87498 7866 ft 320 kts 278°
2026-04-25 22:35 -33.50276 -70.90038 8346 ft 340 kts 295°
2026-04-25 22:35 -33.49198 -70.92588 8883 ft 346 kts 292°
2026-04-25 22:35 -33.47967 -70.95078 9368 ft 355 kts 310°
2026-04-25 22:36 -33.45988 -70.96942 9919 ft 370 kts 323°
2026-04-25 22:36 -33.43846 -70.98759 10447 ft 384 kts 322°
2026-04-25 22:36 -33.41631 -71.00630 10956 ft 390 kts 323°
2026-04-25 22:36 -33.39375 -71.02106 11407 ft 361 kts 340°
2026-04-25 22:37 -33.36908 -71.02903 11905 ft 374 kts 343°
2026-04-25 22:37 -33.34375 -71.03664 12415 ft 387 kts 343°
2026-04-25 22:37 -33.31752 -71.04546 12958 ft 397 kts 340°
2026-04-25 22:37 -33.29145 -71.05543 13488 ft 388 kts 339°
2026-04-25 22:38 -33.26614 -71.06564 14001 ft 379 kts 338°
2026-04-25 22:38 -33.24144 -71.07566 14447 ft 371 kts 339°
2026-04-25 22:38 -33.21721 -71.08533 14915 ft 379 kts 339°
2026-04-25 22:38 -33.19128 -71.09530 15405 ft 390 kts 339°
2026-04-25 22:39 -33.16510 -71.10552 15907 ft 399 kts 338°
2026-04-25 22:39 -33.13853 -71.11630 16399 ft 407 kts 337°
2026-04-25 22:39 -33.11143 -71.12717 16944 ft 415 kts 338°
2026-04-25 22:39 -33.08358 -71.13745 17452 ft 422 kts 339°
2026-04-25 22:40 -33.05541 -71.14797 17924 ft 427 kts 338°
2026-04-25 22:40 -33.02722 -71.15943 18426 ft 430 kts 335°
2026-04-25 22:40 -32.99875 -71.17121 18893 ft 436 kts 337°
2026-04-25 22:40 -32.96976 -71.18201 19490 ft 437 kts 338°
2026-04-25 22:41 -32.94007 -71.19034 20046 ft 443 kts 348°
2026-04-25 22:41 -32.90925 -71.19278 20650 ft 446 kts 354°
2026-04-25 22:41 -32.87823 -71.19273 21285 ft 446 kts 356°
2026-04-25 22:41 -32.84744 -71.19223 21916 ft 445 kts 356°
2026-04-25 22:42 -32.81632 -71.19204 22577 ft 442 kts 354°
2026-04-25 22:42 -32.78569 -71.19253 23212 ft 439 kts 353°
2026-04-25 22:42 -32.75525 -71.19342 23831 ft 436 kts 352°
2026-04-25 22:42 -32.72499 -71.19415 24366 ft 434 kts 352°
2026-04-25 22:43 -32.69480 -71.19474 24843 ft 434 kts 352°
2026-04-25 22:43 -32.66456 -71.19532 25298 ft 434 kts 352°
2026-04-25 22:43 -32.63437 -71.19580 25745 ft 434 kts 352°
2026-04-25 22:43 -32.60420 -71.19630 26191 ft 433 kts 352°
2026-04-25 22:44 -32.57403 -71.19694 26670 ft 432 kts 351°
2026-04-25 22:44 -32.54407 -71.19748 27219 ft 430 kts 351°
2026-04-25 22:44 -32.51424 -71.19804 27722 ft 430 kts 351°
2026-04-25 22:44 -32.48419 -71.19853 27946 ft 434 kts 351°
2026-04-25 22:45 -32.45371 -71.19912 28048 ft 442 kts 351°
2026-04-25 22:45 -32.42269 -71.19967 28113 ft 449 kts 351°
2026-04-25 22:45 -32.35956 -71.20081 28125 ft 458 kts 351°
2026-04-25 22:46 -32.29520 -71.20191 28133 ft 465 kts 351°
2026-04-25 22:46 -32.23018 -71.20309 28112 ft 468 kts 350°
2026-04-25 22:47 -32.16476 -71.20425 28150 ft 472 kts 351°
2026-04-25 22:47 -32.09921 -71.20549 28138 ft 471 kts 351°
2026-04-25 22:48 -32.03444 -71.20666 28138 ft 455 kts 350°
2026-04-25 22:48 -31.97234 -71.20781 28091 ft 442 kts 350°
2026-04-25 22:49 -31.91164 -71.20894 28097 ft 431 kts 350°
2026-04-25 22:49 -31.85214 -71.21002 28103 ft 428 kts 349°
2026-04-25 22:50 -31.79194 -71.21095 28073 ft 435 kts 349°
2026-04-25 22:50 -31.73223 -71.21739 28021 ft 431 kts 341°
2026-04-25 22:51 -31.67275 -71.23064 28103 ft 434 kts 339°
2026-04-25 22:51 -31.61547 -71.25065 28126 ft 425 kts 326°
2026-04-25 22:52 -31.56210 -71.28118 28133 ft 429 kts 324°
2026-04-25 22:52 -31.51710 -71.30777 28132 ft 434 kts 324°
2026-04-25 22:53 -31.45429 -71.34576 28098 ft 444 kts 327°
2026-04-25 22:53 -31.42399 -71.35638 27428 ft 466 kts 345°
2026-04-25 22:53 -31.39131 -71.35610 26666 ft 477 kts
2026-04-25 22:54 -31.35960 -71.34683 26022 ft 477 kts 11°
2026-04-25 22:54 -31.32760 -71.33486 25265 ft 473 kts 13°
2026-04-25 22:54 -31.29663 -71.32245 24560 ft 465 kts 15°
2026-04-25 22:54 -31.26670 -71.30962 23865 ft 451 kts 15°
2026-04-25 22:55 -31.23774 -71.29696 23098 ft 439 kts 16°
2026-04-25 22:55 -31.20964 -71.28443 22284 ft 429 kts 17°
2026-04-25 22:55 -31.18198 -71.27195 21553 ft 418 kts 17°
2026-04-25 22:55 -31.15525 -71.25990 21034 ft 404 kts 17°
2026-04-25 22:56 -31.12947 -71.24813 20527 ft 392 kts 18°
2026-04-25 22:56 -31.10440 -71.23662 20019 ft 382 kts 18°
2026-04-25 22:56 -31.07989 -71.22538 19529 ft 374 kts 18°
2026-04-25 22:56 -31.05590 -71.21437 18983 ft 368 kts 19°
2026-04-25 22:57 -31.03206 -71.20332 18519 ft 368 kts 19°
2026-04-25 22:57 -31.00847 -71.19239 18271 ft 361 kts 20°
2026-04-25 22:57 -30.98556 -71.18166 18185 ft 347 kts 19°
2026-04-25 22:57 -30.97091 -71.17489 18235 ft 338 kts 19°
2026-04-25 22:58 -30.94328 -71.15930 18220 ft 324 kts 33°
2026-04-25 22:58 -30.92440 -71.14591 18197 ft 331 kts 17°
2026-04-25 22:58 -30.90924 -71.14208 18104 ft 334 kts 358°
2026-04-25 22:58 -30.87970 -71.14876 17714 ft 337 kts 340°
2026-04-25 22:59 -30.86352 -71.15308 17472 ft 343 kts 346°
2026-04-25 22:59 -30.83982 -71.15577 17123 ft 341 kts 355°
2026-04-25 22:59 -30.81616 -71.15534 16768 ft 340 kts 360°
2026-04-25 22:59 -30.79265 -71.15348 16401 ft 337 kts
2026-04-25 23:00 -30.76963 -71.15149 16040 ft 334 kts
2026-04-25 23:00 -30.74651 -71.14979 15660 ft 331 kts
2026-04-25 23:00 -30.72355 -71.14831 15296 ft 329 kts
2026-04-25 23:00 -30.70082 -71.14693 14949 ft 326 kts
2026-04-25 23:01 -30.67824 -71.14556 14589 ft 324 kts
2026-04-25 23:01 -30.65586 -71.14420 14235 ft 321 kts
2026-04-25 23:01 -30.63365 -71.14287 13890 ft 318 kts
2026-04-25 23:01 -30.61175 -71.14156 13489 ft 311 kts
2026-04-25 23:02 -30.59024 -71.14027 13099 ft 309 kts
2026-04-25 23:02 -30.56885 -71.13900 12720 ft 307 kts
2026-04-25 23:02 -30.54758 -71.13772 12346 ft 305 kts
2026-04-25 23:02 -30.52644 -71.13646 11975 ft 304 kts
2026-04-25 23:03 -30.50535 -71.13519 11611 ft 302 kts
2026-04-25 23:03 -30.48447 -71.13397 11251 ft 300 kts
2026-04-25 23:03 -30.46369 -71.13273 10886 ft 298 kts
2026-04-25 23:03 -30.44303 -71.13150 10530 ft 296 kts
2026-04-25 23:04 -30.42249 -71.13028 10176 ft 294 kts
2026-04-25 23:04 -30.40217 -71.12907 9841 ft 291 kts
2026-04-25 23:04 -30.38204 -71.12784 9478 ft 288 kts
2026-04-25 23:04 -30.36206 -71.12667 9123 ft 286 kts
2026-04-25 23:05 -30.34230 -71.12552 8762 ft 283 kts
2026-04-25 23:05 -30.32270 -71.12436 8438 ft 281 kts
2026-04-25 23:05 -30.30357 -71.12323 8123 ft 280 kts
2026-04-25 23:05 -30.28384 -71.12211 7799 ft 278 kts
2026-04-25 23:06 -30.26456 -71.12097 7484 ft 277 kts
2026-04-25 23:06 -30.24540 -71.11977 7175 ft 275 kts
2026-04-25 23:06 -30.22715 -71.11826 7170 ft 261 kts
2026-04-25 23:06 -30.20885 -71.11657 6935 ft 258 kts
2026-04-25 23:07 -30.19104 -71.11502 6707 ft 256 kts
2026-04-25 23:07 -30.17324 -71.11354 6465 ft 257 kts
2026-04-25 23:07 -30.15535 -71.11198 6230 ft 258 kts
2026-04-25 23:07 -30.13735 -71.11044 5964 ft 260 kts
2026-04-25 23:08 -30.11944 -71.10817 5705 ft 257 kts 16°
2026-04-25 23:08 -30.10365 -71.09930 5464 ft 250 kts 32°
2026-04-25 23:08 -30.08929 -71.08868 5202 ft 240 kts 34°
2026-04-25 23:08 -30.07619 -71.07877 5017 ft 226 kts 34°
2026-04-25 23:09 -30.06282 -71.06871 4740 ft 220 kts 34°
2026-04-25 23:09 -30.04993 -71.05946 4476 ft 217 kts 32°
2026-04-25 23:09 -30.03710 -71.05150 4343 ft 205 kts 25°
2026-04-25 23:09 -30.02391 -71.04664 4288 ft 191 kts 12°
2026-04-25 23:10 -30.01156 -71.04631 4214 ft 166 kts 356°
2026-04-25 23:10 -30.00031 -71.04859 4158 ft 163 kts 345°
2026-04-25 23:10 -29.98971 -71.05337 4156 ft 163 kts 332°
2026-04-25 23:10 -29.98102 -71.06054 4099 ft 157 kts 312°
2026-04-25 23:11 -29.97370 -71.07109 3810 ft 163 kts 303°
2026-04-25 23:11 -29.96762 -71.08178 3328 ft 163 kts 299°
2026-04-25 23:11 -29.96211 -71.09332 2738 ft 166 kts 295°
2026-04-25 23:11 -29.95709 -71.10467 2252 ft 151 kts 296°
2026-04-25 23:12 -29.95258 -71.11563 1841 ft 150 kts 295°
2026-04-25 23:12 -29.94809 -71.12635 1590 ft 153 kts 296°
2026-04-25 23:12 -29.94318 -71.13733 1454 ft 150 kts 296°
2026-04-25 23:12 -29.93847 -71.14803 1252 ft 149 kts 294°
2026-04-25 23:13 -29.93400 -71.15867 1103 ft 147 kts 294°
2026-04-25 23:13 -29.92941 -71.16923 921 ft 148 kts 294°
2026-04-25 23:13 -29.92492 -71.17967 718 ft 145 kts 294°
2026-04-25 23:13 -29.92043 -71.19014 523 ft 140 kts 294°
2026-04-25 23:14 -29.91677 -71.19877 464 ft 100 kts 296°
2026-04-25 23:14 -29.91532 -71.20213 459 ft 15 kts 293°
2026-04-25 23:14 -29.91541 -71.20271 459 ft 5 kts 222°
2026-04-25 23:14 -29.91567 -71.20287 458 ft 5 kts 205°
2026-04-25 23:15 -29.91607 -71.20308 458 ft 7 kts 203°
2026-04-25 23:15 -29.91650 -71.20332 457 ft 7 kts 207°
2026-04-25 23:15 -29.91663 -71.20339 457 ft 0 kts 205°